Location: Newark
(38.7000°N, 115.1000°W)
Time: 02:25:19
(UTC+00:00)

ISS - Visible Passes

Search period start: 27 January 2020 00:00
Search period end: 06 February 2020 00:00
Orbit: 416 x 423 km, 51.6° (Epoch: 27 January)

Date Brightness Start Highest point End Pass type
(mag) Time Alt. Az. Time Alt. Az. Time Alt. Az.
28 Jan -1.1 02:01:13 10° NNW 02:02:19 11° NNW 02:03:25 10° N visible
01 Feb -1.2 02:06:28 10° N 02:06:59 10° N 02:07:32 10° NNE visible
02 Feb -1.2 02:54:28 10° NNW 02:55:13 14° NNW 02:55:13 14° NNW visible
03 Feb -1.7 02:07:10 10° NNW 02:09:11 15° NNE 02:09:45 14° NNE visible
04 Feb -2.0 02:55:38 10° NW 02:57:22 25° NNW 02:57:22 25° NNW visible
05 Feb -2.5 02:08:13 10° NNW 02:11:09 26° NNE 02:12:05 23° ENE visible
05 Feb -0.3 03:44:52 10° WNW 03:45:04 11° WNW 03:45:04 11° WNW visible
